Location: Gipe Farm
(40.9466°N, 95.5370°W)
Time: 15:34:43
(UTC-05:00)

Daily predictions for brighter satellites

Satellite Brightness Start Highest point End
(mag) Time Altitude Azimuth Time Altitude Azimuth Time Altitude Azimuth
COSMOS 2455 2.9 21:07:03 10° SSW 21:12:57 62° ESE 21:18:54 10° NE
GPS 2-04 Rocket1 3.3 21:11:30 10° WSW 21:15:02 36° S 21:18:23 10° ESE
H-2A R/B 4.1 21:13:00 10° E 21:15:33 14° ENE 21:18:04 10° NNE
ATLAS 5 CENTAUR R/B 3.4 21:11:08 10° NNW 21:16:29 34° NE 21:22:16 10° ESE
Cosmos 1346 Rocket 2.8 21:13:01 10° N 21:16:59 72° E 21:20:59 10° SSE
USA 186 2.2 21:14:28 10° S 21:17:05 53° W 21:19:58 10° NNW
Meteor 2-10 Rocket 4.4 21:11:26 10° NNW 21:17:10 60° W 21:22:50 10° S
Lacrosse 5 rocket 0.9 21:13:59 10° SSW 21:17:31 62° SE 21:21:06 10° NE
Helios 1A 3.3 21:16:46 10° SSE 21:20:49 50° ENE 21:24:54 10° N
Aureole 3 3.9 21:18:58 10° SSE 21:21:27 23° E 21:23:54 10° NE
Cosmos 1634 Rocket 4.2 21:18:08 10° N 21:24:22 60° E 21:30:36 10° SSE
BREEZE-M DEB (TANK) 3.9 21:25:41 10° NW 21:28:13 32° NNE 21:35:09 10° E
DELTA 2 R/B(2) 3.3 21:26:14 10° WSW 21:28:13 44° S 21:29:32 13° E
ERS-1 Rocket 3.8 21:24:00 10° SE 21:28:32 35° ENE 21:33:06 10° N
Cosmos 1939 Rocket 2.9 21:25:35 10° SSE 21:29:43 86° ENE 21:33:51 10° N
Cosmos 1408 3.5 21:29:02 10° SSE 21:32:17 30° E 21:35:35 10° NNE
ARGOS 4.3 21:28:53 10° ESE 21:33:24 28° ENE 21:37:54 10° N
ISS -3.1 21:30:16 10° WSW 21:33:27 57° NNW 21:36:41 10° NE
Spot 1 4.4 21:32:30 10° SSE 21:37:16 69° ENE 21:42:18 10° N
Tiangong 2 2.4 21:36:13 10° W 21:39:05 30° SSW 21:41:25 13° SSE
Resurs 01 Rocket 3.6 21:37:42 10° SSW 21:41:32 29° W 21:45:24 10° NW
CZ-4B DEB 2.5 21:41:38 12° SSE 21:44:13 65° ENE 21:47:08 10° N
USA 215 3.9 21:38:10 10° ESE 21:44:26 49° NNE 21:50:42 10° NW
Cosmos 1825 2.4 21:45:57 10° SSE 21:49:34 46° E 21:53:12 10° NNE
Okean 1-7 3.0 21:47:42 10° N 21:52:08 75° E 21:56:17 11° SSE
Meteor 2-3 Rocket 4.5 21:48:08 10° SSW 21:53:43 56° WNW 21:59:18 10° N
Shenzhou-11 Module 4.1 21:52:31 10° WSW 21:54:37 17° SSW 21:56:10 13° S
Cosmos 1782 2.8 21:52:39 10° N 21:56:39 70° E 21:59:50 15° SSE
Cosmos 2279 Rocket 4.1 21:50:44 10° N 21:56:57 64° E 22:02:33 13° SSE
Milstar 3 4.2 21:49:28 10° SW 22:00:17 33° S 22:05:32 17° ESE
SPOT 5 3.7 21:56:51 17° SE 22:00:34 41° ENE 22:05:30 10° N
Envisat 4.5 21:59:26 10° SSW 22:04:01 34° W 22:08:40 10° NNW
Cosmos 372 Rocket 3.9 21:59:47 10° S 22:04:53 72° ESE 22:09:59 10° NNE
CENTAUR R/B 2.5 21:59:18 10° SSW 22:05:17 87° ESE 22:12:08 10° NE
MetOp-A 4.2 22:01:17 16° SSE 22:05:36 67° ENE 22:10:56 10° N
SPOT 1/Viking Rocket 4.2 22:10:32 21° SE 22:13:27 40° ENE 22:18:17 10° N
Cosmos 1943 Rocket 2.2 22:10:09 10° SSW 22:15:45 86° WNW 22:21:20 10° NNE
deb Kosmos-1763 4.1 22:12:05 10° NNW 22:15:53 88° WSW 22:17:52 27° SSE
Cosmos 1862 3.3 22:14:37 22° SSE 22:17:01 58° E 22:20:56 10° NNE
Cosmos 1269 Rocket 4.0 22:12:49 10° NNW 22:18:09 86° ENE 22:21:35 22° SSE
DNEPR-1 R/B 4.1 22:13:27 10° SW 22:18:41 70° WNW 22:23:11 10° NNE
Helios 1B rocket 3.8 22:14:55 10° N 22:18:47 40° WNW 22:22:38 10° SW
Cosmos 1733 Rocket 3.3 22:17:37 25° SSE 22:19:45 47° E 22:23:55 10° NNE
Cosmos 1125 Rocket 3.8 22:15:11 10° SSW 22:20:24 69° WNW 22:25:38 10° NNE
Cosmos 1340 2.6 22:20:42 10° N 22:24:30 85° W 22:26:25 28° S
Lacrosse 4 Rocket 1.5 22:24:25 10° NNW 22:28:56 88° ENE 22:30:55 33° SSE
Cosmos 2344 3.5 22:24:48 10° SSW 22:32:26 78° ESE 22:40:51 10° NE
ATLAS CENTAUR R/B 2.9 22:39:01 20° ENE 22:39:01 20° ENE 22:40:40 10° NE
SL-08 RB Rocket 3.7 22:39:05 31° SSE 22:41:20 87° W 22:46:02 10° NNW
Cosmos 2369 Rocket 4.0 22:36:45 10° WSW 22:41:47 32° WNW 22:46:52 10° N
Cosmos 1606 4.2 22:39:23 10° NNW 22:42:46 32° W 22:45:18 15° SSW
Cosmos 494 Rocket 4.2 22:42:54 10° NNW 22:48:03 57° ENE 22:49:47 38° SE
Cosmos 1867 3.8 22:44:28 10° NNW 22:49:52 59° NE 22:51:55 36° ESE
Cosmos 1833 4.4 22:45:11 10° NNW 22:50:56 69° WSW 22:53:41 31° S
BREEZE M DEB (TANK) 4.2 22:41:01 10° WSW 22:52:24 66° NNW 22:55:56 10° NE
CARTOSAT-1 4.1 22:53:20 40° E 22:54:01 43° ENE 22:58:07 10° N
H-2A R/B 2.1 22:51:43 33° S 22:54:14 85° WSW 22:59:36 10° NNW
GPS 2-04 Rocket1 4.4 22:51:25 10° WSW 22:53:12 19° SW 22:53:12 19° SW
Lacrosse 5 rocket 4.0 22:54:26 10° WNW 22:57:01 18° NNW 22:59:39 10° NNE
Cosmos 1674 Rocket 3.4 22:52:56 10° N 22:57:17 88° E 22:58:18 52° S
Cosmos 1378 Rocket 3.9 22:53:13 10° N 22:57:32 47° E 22:58:03 45° ESE
Cosmos 2297 Rocket 4.1 22:57:04 10° N 23:00:48 17° NE 23:03:17 14° E
ATLAS 5 CENTAUR R/B 2.9 22:55:34 10° NW 23:01:26 52° WSW 23:04:25 30° S
Landsat 7 3.7 23:00:47 49° SSE 23:02:03 78° ENE 23:06:50 10° N
ISS -0.7 23:08:21 10° NW 23:10:29 16° NNW 23:12:37 10° NNE
H-2A R/B 2.7 23:10:51 38° ENE 23:10:51 38° ENE 23:14:40 10° N
Okean 3 3.2 23:07:42 10° N 23:11:54 77° E 23:12:09 74° ESE
Cosmos 1656 Rocket 3.9 23:06:48 10° SSW 23:12:12 67° WNW 23:17:44 10° NNE
IGS 5A 3.4 23:13:00 66° E 23:13:11 67° ENE 23:17:19 10° N
ARGOS 4.3 23:10:23 21° SSW 23:13:28 38° W 23:18:26 10° NNW
Terra 1.7 23:16:28 62° SE 23:17:14 78° ENE 23:22:00 10° N
Cosmos 1092 Rocket 4.0 23:16:33 30° SSW 23:19:45 78° W 23:25:55 10° N
BREEZE-M DEB (TANK) 3.3 23:24:46 54° SE 23:24:50 54° SE 23:35:39 10° ENE
USA 215 3.6 23:25:19 40° S 23:27:22 53° SW 23:33:47 10° NW
Cosmos 1627 Rocket 4.4 23:27:04 46° S 23:29:07 83° E 23:35:30 10° N
Cosmos 1437 4.2 23:26:39 10° NNW 23:29:01 35° WNW 23:29:01 35° WNW
Cosmos 1908 Rocket 3.9 23:32:44 52° WSW 23:33:28 60° W 23:37:53 10° N
Meteor 1-20 Rocket 4.2 23:33:26 59° SE 23:34:13 66° E 23:39:52 10° NNE
Cosmos 1553 Rocket 4.3 23:29:06 10° N 23:35:17 51° ENE 23:36:24 46° ESE
ARGOS Delta rocket 4.2 23:36:41 10° NNE 23:40:16 47° ENE 23:40:16 47° ENE
Meteor 1-25 Rocket 4.2 23:41:22 60° S 23:42:30 86° E 23:48:22 10° N
Okean 2 Rocket 3.4 23:46:07 58° NE 23:46:07 58° NE 23:49:52 10° NNE
CZ-2C R/B 4.0 23:42:32 10° NE 23:45:42 24° ENE 23:45:42 24° ENE
Cosmos 2251 Rocket 3.9 23:42:27 10° NNW 23:47:30 50° WSW 23:48:10 47° SW
Cosmos 2227 Rocket 2.6 23:45:38 10° NNW 23:51:07 48° ENE 23:51:48 45° E
DELTA 2 DEB (DPAF) 4.5 23:52:09 59° NE 23:52:09 59° NE 23:56:07 10° N
